Location: Jetmore Oil Field
(38.1181°N, 99.9337°W)
Time: 00:30:56
(UTC+00:00)

ISS - Pass Details

Date: 26 June 2021
Orbit: 419 x 421 km, 51.6° (Epoch: 30 July)

Event Time Altitude Azimuth Distance (km) Brightness Sun altitude
Exits shadow 10:46:20 - 235° (SW) 1,650 -1.5 -6.1°
Reaches altitude 10° 10:46:43 10° 236° (SW) 1,492 -1.7 -6.1°
Maximum altitude 10:50:03 73° 321° (NW) 440 -3.7 -5.5°
Drops below altitude 10° 10:53:25 10° 47° (NE) 1,500 0.9 -5.0°
Sets 10:55:32 0° 50° (NE) 2,366 2.8 -4.6°
